Cloud_Cover
4 0 0 0 0 0 0 0 0 0 0 0 0 0 0 0 0 0 0 0 0 0 0 12 0 0 0 0 0 0 0 0 0 0 0 0 12 17 0 0 0 15 4
4 5 10 0 0 0 0 0 0 0 0 0 0 0 0 0 0 0 0 0 0 0 0 0 0 0 0 0 0 0 0 0 0 0 0 0 5 18 8 0 0 9 5
0 0 5 0 0 4 0 0 0 0 0 0 0 0 0 0 0 0 0 0 0 0 0 0 0 0 0 0 0 0 0 0 0 0 0 24 20 1 2 0 0 1 3
0 0 0 4 1 3 5 2 0 0 0 0 0 0 0 0 0 0 0 0 0 0 0 0 4 0 0 0 0 0 0 0 0 0 0 0 14 1 13 4 4 1 4
0 0 0 0 2 5 5 5 5 2 2 0 0 0 0 0 0 0 0 0 0 0 0 0 0 0 0 0 0 0 0 0 0 0 0 0 9 23 7 4 5 9 7
0 0 39 0 0 0 5 5 14 68 5 5 0 0 0 0 0 0 0 0 0 0 0 0 0 0 0 0 0 0 0 0 0 0 0 0 4 1 0 0 5 5 94
0 0 0 1 0 0 0 3 5 13 77 61 99 50 28 3 0 0 0 0 0 0 0 2 86 0 0 0 0 0 0 0 0 0 0 0 0 0 0 0 2 1 31
0 0 0 11 0 0 0 0 5 43 46 95 14 32 87 98 25 2 0 0 0 0 0 0 0 0 0 0 0 0 0 0 1 0 0 0 0 0 0 0 0 0 1
0 0 4 0 4 23 1 39 94 12 77 100 8 5 5 61 100 53 2 2 5 5 5 0 0 0 0 0 0 0 0 0 0 2 3 3 0 3 0 0 0 0 0
0 0 0 5 23 15 6 7 38 8 5 19 39 40 5 6 8 98 70 5 5 5 5 5 4 0 0 0 0 0 0 9 3 5 5 5 5 5 5 0 0 0 0
22 0 0 0 0 11 18 6 40 12 5 12 35 100 80 37 5 43 87 100 35 37 26 6 4 0 0 9 0 0 14 5 4 5 5 5 5 6 17 0 0 0 1
100 62 5 12 12 70 76 100 100 40 99 87 69 100 100 96 94 40 70 100 88 99 69 41 5 3 53 26 5 55 8 5 4 5 27 20 51 30 5 0 0 0 0
100 100 100 100 28 21 11 19 77 89 86 92 94 100 100 100 100 100 97 64 36 19 18 43 50 47 56 45 45 42 85 6 5 7 17 48 100 38 5 0 0 0 0
92 99 81 80 43 21 18 37 76 68 100 100 92 100 100 100 100 100 100 100 100 100 100 100 87 52 55 81 96 73 45 74 5 10 6 60 99 5 5 14 5 4 5
93 37 5 5 31 36 46 77 80 87 100 100 100 100 100 100 100 100 100 100 100 100 100 100 53 80 100 100 100 94 80 95 5 5 48 5 100 95 5 5 7 98 100
91 58 24 53 100 100 99 74 79 77 91 100 100 100 100 100 100 100 100 100 100 100 100 64 100 100 100 100 100 100 96 37 51 8 8 59 100 100 98 61 37 48 100
4 6 11 100 37 100 100 77 84 27 100 100 97 100 100 100 98 84 68 100 100 93 100 100 100 100 100 100 100 100 100 88 100 100 83 79 89 100 100 100 100 100 100
20 28 52 100 98 100 100 100 98 86 88 94 96 100 100 100 100 100 100 100 100 100 100 85 96 100 100 100 100 100 100 100 100 100 100 100 100 86 100 100 90 85 100
40 97 100 100 100 100 100 100 62 36 2 7 5 1 4 1 2 4 22 63 100 100 100 100 99 100 100 100 100 100 100 100 100 100 100 100 100 100 100 96 98 88 98
51 100 100 100 100 100 100 97 51 22 0 0 0 0 0 0 0 0 4 5 34 20 100 100 100 100 100 100 100 100 100 100 100 100 99 100 100 100 100 100 99 98 100
32 48 92 100 100 100 100 73 6 0 0 0 0 0 0 0 2 5 5 5 5 62 95 5 95 100 100 100 99 100 100 100 100 100 100 100 100 100 100 100 100 100 100
13 41 100 100 100 100 100 94 42 30 30 8 5 4 5 43 50 28 50 61 84 51 63 32 4 6 99 95 100 100 100 100 100 100 100 100 100 100 100 100 100 99 80
98 95 99 100 100 100 100 100 82 10 99 86 73 5 14 54 72 83 100 100 100 100 100 100 87 34 25 100 100 70 100 100 100 100 100 100 100 100 100 100 100 100 96
63 91 56 56 100 100 100 100 66 79 63 99 100 82 59 64 97 100 100 100 100 100 100 100 100 100 100 50 81 95 77 100 100 100 100 100 100 100 100 100 100 100 100
100 62 11 100 49 97 100 99 88 41 87 100 100 100 100 98 100 100 100 100 100 100 100 100 100 100 100 100 78 93 100 82 100 100 100 100 80 94 100 100 100 100 100
100 100 100 84 96 59 88 97 74 99 100 100 100 100 100 100 100 100 100 100 100 100 100 100 100 100 100 100 100 96 100 100 100 72 95 87 100 91 46 97 100 100 100